Petersburg, VA

10:00 PM EST on December 13, 2017 (GMT -0500)
Dinwiddie County

Weather History for KPTB - November, 2013

Change the Weather History Date:

Saturday, November 23, 2013

  Actual Average (KRIC) Record (KRIC)
Temperature  
Mean Temperature 54 °F -  
Max Temperature 66 °F 56 °F 82 °F (1900)
Min Temperature 42 °F 33 °F 20 °F (1964)
Degree Days  
Heating Degree Days 11    
Growing Degree Days 4 (Base 50)    
Moisture  
Dew Point 41 °F    
Average Humidity 60    
Maximum Humidity 94    
Minimum Humidity 31    
Precipitation  
Precipitation 0.00 in - - ()
Sea Level Pressure  
Sea Level Pressure 30.08 in    
Wind  
Wind Speed 7 mph (NW)    
Max Wind Speed 15 mph    
Max Gust Speed 22 mph    
Visibility 10 miles    
Events      
Averages and records for this station are not official NWS values.
T = Trace of Precipitation, MM = Missing Value Source: NWS Daily Summary

Daily Weather History Graph

Daily Weather History Graph

Search for Another Location

Airport or City:

Trip Planner

Search our weather history database for the weather conditions in past years. The results will help you decide how hot, cold, wet, or windy it might be!

Date:

Astronomy

Nov. 23, 2013 Rise Set
Actual Time 6:57 AM EST 4:55 PM EST
Civil Twilight 6:29 AM EST 5:23 PM EST
Nautical Twilight 5:57 AM EST 5:55 PM EST
Astronomical Twilight 5:26 AM EST 6:26 PM EST
Moon 10:18 PM EST (11/23) 11:15 AM EST (11/23)
Length of Visible Light 10h 54m
Length of Day
9h 57m
Waning Gibbous, 70% of the Moon is Illuminated
Nov 23
Waning Gibbous
Nov 25
Last Quarter
Dec 2
New
Dec 9
First Quarter
Dec 17
Full

Hourly Weather History & Observations

Time (EST) Temp. Windchill Dew Point Humidity Pressure Visibility Wind Dir Wind Speed Gust Speed Precip Events Conditions
12:15 AM 66.2 °F - 62.6 °F 88% 30.02 in 10.0 mi SW 9.2 mph - N/A   Overcast
12:35 AM 66.2 °F - 62.6 °F 88% 30.02 in 10.0 mi SW 6.9 mph - N/A   Overcast
12:55 AM 64.4 °F - 62.6 °F 94% 30.02 in 10.0 mi SW 6.9 mph - N/A   Scattered Clouds
1:15 AM 64.4 °F - 62.6 °F 94% 30.02 in 10.0 mi SW 5.8 mph - N/A   Scattered Clouds
1:35 AM 64.4 °F - 62.6 °F 94% 30.03 in 10.0 mi WSW 5.8 mph - N/A   Mostly Cloudy
1:55 AM 64.4 °F - 60.8 °F 88% 30.03 in 10.0 mi West 4.6 mph - N/A   Scattered Clouds
2:15 AM 64.4 °F - 60.8 °F 88% 30.03 in 10.0 mi North - - N/A   Scattered Clouds
2:35 AM 64.4 °F - 60.8 °F 88% 30.03 in 10.0 mi West 3.5 mph - N/A   Scattered Clouds
2:55 AM 64.4 °F - 60.8 °F 88% 30.03 in 10.0 mi West 4.6 mph - N/A   Scattered Clouds
3:15 AM 64.4 °F - 60.8 °F 88% 30.04 in 10.0 mi West 4.6 mph - N/A   Scattered Clouds
3:35 AM 62.6 °F - 60.8 °F 94% 30.03 in 10.0 mi NW 4.6 mph - N/A   Scattered Clouds
3:55 AM 62.6 °F - 60.8 °F 94% 30.03 in 10.0 mi NW 5.8 mph - N/A   Scattered Clouds
4:15 AM 62.6 °F - 60.8 °F 94% 30.03 in 10.0 mi NNW 4.6 mph - N/A   Mostly Cloudy
4:35 AM 62.6 °F - 60.8 °F 94% 30.04 in 10.0 mi North 8.1 mph - N/A   Scattered Clouds
4:55 AM 60.8 °F - 53.6 °F 77% 30.06 in 10.0 mi North 9.2 mph - N/A   Mostly Cloudy
5:15 AM 60.8 °F - 51.8 °F 72% 30.07 in 10.0 mi NNE 15.0 mph - N/A   Overcast
5:35 AM 59.0 °F - 50.0 °F 72% 30.09 in 10.0 mi North 9.2 mph - N/A   Mostly Cloudy
5:55 AM 57.2 °F - 50.0 °F 77% 30.09 in 10.0 mi North 6.9 mph - N/A   Overcast
6:15 AM 57.2 °F - 48.2 °F 72% 30.09 in 10.0 mi North 10.4 mph 18.4 mph N/A   Mostly Cloudy
6:35 AM 55.4 °F - 48.2 °F 77% 30.10 in 10.0 mi North 8.1 mph - N/A   Mostly Cloudy
6:55 AM 55.4 °F - 46.4 °F 72% 30.10 in 10.0 mi North 8.1 mph - N/A   Mostly Cloudy
7:15 AM 55.4 °F - 46.4 °F 72% 30.11 in 10.0 mi North 11.5 mph - N/A   Clear
7:35 AM 55.4 °F - 44.6 °F 67% 30.12 in 10.0 mi North 8.1 mph - N/A   Clear
7:55 AM 55.4 °F - 44.6 °F 67% 30.12 in 10.0 mi North 6.9 mph - N/A   Clear
8:15 AM 55.4 °F - 44.6 °F 67% 30.12 in 10.0 mi NNE 10.4 mph - N/A   Clear
8:35 AM 55.4 °F - 42.8 °F 63% 30.13 in 10.0 mi North 11.5 mph - N/A   Clear
8:55 AM 55.4 °F - 42.8 °F 63% 30.14 in 10.0 mi North 8.1 mph - N/A   Clear
9:15 AM 55.4 °F - 42.8 °F 63% 30.13 in 10.0 mi NNE 9.2 mph 16.1 mph N/A   Clear
9:35 AM 57.2 °F - 42.8 °F 59% 30.14 in 10.0 mi North 8.1 mph - N/A   Clear
9:55 AM 57.2 °F - 42.8 °F 59% 30.15 in 10.0 mi NNW 11.5 mph - N/A   Clear
10:15 AM 59.0 °F - 42.8 °F 55% 30.14 in 10.0 mi North 5.8 mph - N/A   Scattered Clouds
10:35 AM 59.0 °F - 42.8 °F 55% 30.13 in 10.0 mi North 9.2 mph - N/A   Scattered Clouds
10:55 AM 60.8 °F - 42.8 °F 52% 30.12 in 10.0 mi NNE 8.1 mph - N/A   Scattered Clouds
11:15 AM 60.8 °F - 35.6 °F 39% 30.12 in 10.0 mi North 9.2 mph - N/A   Scattered Clouds
11:35 AM 60.8 °F - 35.6 °F 39% 30.11 in 10.0 mi North 9.2 mph - N/A   Scattered Clouds
11:55 AM 60.8 °F - 35.6 °F 39% 30.10 in 10.0 mi North 6.9 mph - N/A   Clear
12:15 PM 62.6 °F - 32.0 °F 32% 30.08 in 10.0 mi NW 12.7 mph 17.3 mph N/A   Mostly Cloudy
12:35 PM 60.8 °F - 32.0 °F 34% 30.07 in 10.0 mi NNW 11.5 mph - N/A   Scattered Clouds
12:55 PM 60.8 °F - 33.8 °F 36% 30.07 in 10.0 mi NNE 10.4 mph - N/A   Clear
1:15 PM 60.8 °F - 33.8 °F 36% 30.06 in 10.0 mi North 8.1 mph - N/A   Clear
1:35 PM 60.8 °F - 35.6 °F 39% 30.06 in 10.0 mi NW 8.1 mph - N/A   Clear
1:55 PM 60.8 °F - 37.4 °F 42% 30.04 in 10.0 mi WNW 4.6 mph - N/A   Clear
2:15 PM 60.8 °F - 37.4 °F 42% 30.03 in 10.0 mi NNW 8.1 mph - N/A   Clear
2:35 PM 60.8 °F - 37.4 °F 42% 30.03 in 10.0 mi Calm Calm - N/A   Clear
2:55 PM 60.8 °F - 37.4 °F 42% 30.04 in 10.0 mi NW 8.1 mph - N/A   Clear
3:15 PM 60.8 °F - 32.0 °F 34% 30.04 in 10.0 mi NW 10.4 mph - N/A   Clear
3:35 PM 60.8 °F - 30.2 °F 31% 30.04 in 10.0 mi NW 8.1 mph - N/A   Clear
3:55 PM 60.8 °F - 30.2 °F 31% 30.03 in 10.0 mi NW 8.1 mph - N/A   Clear
4:15 PM 59.0 °F - 30.2 °F 34% 30.04 in 10.0 mi NW 3.5 mph - N/A   Clear
4:35 PM 57.2 °F - 30.2 °F 36% 30.03 in 10.0 mi NNW 3.5 mph - N/A   Clear
4:55 PM 50.0 °F - 33.8 °F 54% 30.04 in 10.0 mi Calm Calm - N/A   Clear
5:15 PM 44.6 °F - 37.4 °F 76% 30.04 in 10.0 mi Calm Calm - N/A   Clear
5:35 PM 44.6 °F - 35.6 °F 71% 30.04 in 10.0 mi Calm Calm - N/A   Clear
5:55 PM 42.8 °F - 37.4 °F 81% 30.04 in 10.0 mi Calm Calm - N/A   Clear
6:15 PM 42.8 °F - 35.6 °F 76% 30.04 in 10.0 mi Calm Calm - N/A   Clear
6:35 PM 42.8 °F - 37.4 °F 81% 30.05 in 10.0 mi Calm Calm - N/A   Clear
6:55 PM 42.8 °F 40.1 °F 37.4 °F 81% 30.05 in 10.0 mi SW 4.6 mph - N/A   Clear
7:15 PM 44.6 °F 40.7 °F 35.6 °F 71% 30.06 in 10.0 mi WSW 6.9 mph - N/A   Clear
7:35 PM 53.6 °F - 30.2 °F 41% 30.06 in 10.0 mi WNW 10.4 mph 17.3 mph N/A   Clear
7:55 PM 53.6 °F - 28.4 °F 38% 30.07 in 10.0 mi WNW 9.2 mph 16.1 mph N/A   Clear
8:15 PM 51.8 °F - 26.6 °F 38% 30.08 in 10.0 mi WNW 6.9 mph - N/A   Clear
8:35 PM 51.8 °F - 26.6 °F 38% 30.09 in 10.0 mi NNW 8.1 mph - N/A   Clear
8:55 PM 51.8 °F - 26.6 °F 38% 30.10 in 10.0 mi NNW 8.1 mph - N/A   Clear
9:15 PM 51.8 °F - 24.8 °F 35% 30.10 in 10.0 mi NNW 3.5 mph - N/A   Clear
9:35 PM 50.0 °F - 24.8 °F 37% 30.11 in 10.0 mi NNW 8.1 mph - N/A   Clear
9:55 PM 50.0 °F - 21.2 °F 32% 30.12 in 10.0 mi NW 10.4 mph 21.9 mph N/A   Clear
10:15 PM 48.2 °F - 23.0 °F 37% 30.12 in 10.0 mi NW 10.4 mph 17.3 mph N/A   Clear
10:35 PM 48.2 °F - 23.0 °F 37% 30.13 in 10.0 mi NW 12.7 mph 21.9 mph N/A   Clear
10:55 PM 46.4 °F 42.4 °F 23.0 °F 40% 30.13 in 10.0 mi WNW 8.1 mph 17.3 mph N/A   Clear
11:15 PM 46.4 °F 42.9 °F 23.0 °F 40% 30.14 in 10.0 mi NW 6.9 mph 18.4 mph N/A   Clear
11:35 PM 46.4 °F 42.9 °F 23.0 °F 40% 30.14 in 10.0 mi WNW 6.9 mph 10.4 mph N/A   Clear
11:55 PM 44.6 °F 38.8 °F 23.0 °F 43% 30.15 in 10.0 mi NNW 11.5 mph - N/A   Clear